User: anonymous   Login
Location: Miami
(25.7742°N, 80.1936°W)
Time: 17:01:18
(UTC-04:00)
Language:

ISS - Orbit

View from above orbital plane
View from above orbital plane
View from above satellite
View from above satellite

Ground track
Ground track

The orbit is defined by the following mean orbital elements,

1 25544U          26112.52244764 +.00000000 +00000-0 +14744-3 0 00002
2 25544  51.6320 215.6072 0006766 337.8366  22.2329 15.48891662    03
Epoch (UTC): 22 April 2026 12:32:19
Eccentricity: 0.0006766
inclination: 51.6320°
perigee height: 415 km
apogee height: 425 km
right ascension of ascending node: 215.6072°
argument of perigee: 337.8366°
revolutions per day: 15.48891662
mean anomaly at epoch: 22.2329°

The dashed part of the orbit path shows where the satellite is in the earth's shadow,  

DLR